Location: Arleux
(50.3632°N, 2.8721°E)
Time: 04:43:19
(UTC+00:00)

Cosmos 1782 Rocket - Pass Details

Date: 15 December 2019
Orbit: 606 x 632 km, 82.5° (Epoch: 22 January)

Event Time Altitude Azimuth Distance (km) Brightness Sun altitude
Rises 06:23:08 0° 183° (S) 2,898 7.3 -11.7°
Reaches altitude 10° 06:25:22 10° 182° (S) 1,993 6.4 -11.4°
Maximum altitude 06:29:46 75° 98° (E) 650 3.8 -10.7°
Drops below altitude 10° 06:34:10 10° 13° (NNE) 1,993 6.1 -10.1°
Sets 06:36:24 0° 12° (NNE) 2,899 6.9 -9.8°
